Printer-friendly version

IAU Minor Planet Center

Minor Planet Center

MPEC 2006-M12 : 2006 BN6

The following Minor Planet Electronic Circular may be linked-to from your own Web pages, but must not otherwise be redistributed electronically.


Read MPEC 2006-M11 Read MPEC 2006-M13


M.P.E.C. 2006-M12                                Issued 2006 June 20, 04:12 UT

     The Minor Planet Electronic Circulars contain information on unusual
         minor planets and routine data on comets.  They are published
   on behalf of Commission 20 of the International Astronomical Union by the
          Minor Planet Center, Smithsonian Astrophysical Observatory,
                          Cambridge, MA 02138, U.S.A.

                  Supported in part by the Brinson Foundation
                  Supported in part by the TABASGO Foundation
             Prepared using the Tamkin Foundation Computer Network

                              MPC@CFA.HARVARD.EDU
          URL http://cfa-www.harvard.edu/iau/mpc.html  ISSN 1523-6714

                                   2006 BN6

                           Revision to MPEC 2006-B29

Additional Observations:
     K06B06N  C2002 09 27.22812 23 17 06.56 +25 31 42.6          20.4 R EM012644
     K06B06N  C2002 09 27.25492 23 17 04.68 +25 31 19.5          20.4 R EM012644
     K06B06N  C2002 09 27.29159 23 17 02.03 +25 30 48.0          20.3 R EM012644
     K06B06N  C2002 09 28.25017 23 15 56.71 +25 16 55.1          20.4 R EM012644
     K06B06N  C2002 09 28.28391 23 15 54.36 +25 16 26.5          20.0 R EM012644

Observer details:
644 Palomar Mountain/NEAT.  Observers E. F. Helin, S. Pravdo, K. Lawrence,
    K. Kuluhiwa, M. Hicks.  Measurer R. Matson.  1.2-m Schmidt + CCD.

Orbital elements:
2006 BN6                                                 Earth MOID = 0.1914 AU
Epoch 2006 Mar. 6.0 TT = JDT 2453800.5                  MPC
M 351.82482              (2000.0)            P               Q
n   0.24237744     Peri.  336.52230     -0.65386406     +0.69813205
a   2.5476588      Node   251.24006     -0.63617076     -0.71596479
e   0.7078937      Incl.   17.94104     -0.40957119     -0.00246011
P   4.07           H   17.3           G   0.15           U   1
Residuals in seconds of arc
020927 644  0.1-  0.1+    060123 I77  0.1-  0.2-    060208 423  0.2+  0.0
020927 644  0.3+  0.1+    060123 E12  0.2+  0.0     060208 423  0.2-  0.1-
020927 644  0.2-  0.3+    060123 E12  0.0   0.1-    060209 844  1.3-  0.2+
020928 644  0.0   0.3-    060123 E12  0.0   0.3-    060209 844  0.5-  0.3+
020928 644  0.0   0.5+    060123 E12  0.3+  0.1+    060209 844  0.4+  0.0
060121 E12  0.1+  0.3-    060123 E12  0.1+  0.1-    060209 844  0.0   0.3-
060121 E12  0.1+  0.6-    060123 E12  0.1-  0.0     060209 844  0.5+  0.2+
060121 E12  0.4+  0.4+    060123 E12  0.2-  0.0     060209 423  0.1-  0.0
060121 E12  0.2-  0.1+    060123 423  0.2-  0.3-    060209 423  0.2-  0.0
060121 E12  0.2-  0.3-    060123 474  0.1+  0.3+    060217 423  0.0   0.1-
060121 E12  0.2-  0.2-    060123 474  0.3+  0.4+    060217 423  0.2-  0.0
060121 E12  0.1-  0.3-    060123 474  0.3+  0.5+    060217 423  0.3-  0.2+
060121 E12  0.0   0.0     060123 474  0.2+  0.5+    060217 423  0.1-  0.1-
060121 E12  0.4-  0.5-    060123 423  1.2+  0.4+    060217 423  0.2-  0.2+
060121 E12  0.1+  0.0     060123 423  0.1+  0.1+    060217 423  0.0   0.0
060121 E12  0.0   0.1-    060123 423  0.3-  0.7+    060217 423  0.2+  0.0
060122 J87  0.2+  0.1+    060123 E12  0.2-  0.1+    060221 844  0.3+  0.5-
060122 J87  0.1-  0.1-    060123 E12  0.3-  0.4+    060221 844  0.1+  1.5-
060122 J87  1.1-  0.0     060123 E12  0.0   0.3+    060221 844  0.4+  0.1-
060122 854  0.4-  0.9-    060124 I77  0.3-  0.3-    060221 844  0.3+  0.5-
060122 854  0.2+  0.8-    060124 I77  0.2-  0.2-    060221 844  0.2+  0.0
060122 854  0.4-  1.1-    060124 I77  0.1-  0.1-    060221 844  0.1+  0.3+
060122 670  0.3-  1.7-    060126 844  0.0   0.5-    060221 844  0.4-  0.2-
060122 670  1.9+  0.8-    060126 844  0.3-  0.6-    060221 844  0.3+  0.4-
060122 670  0.5+  0.6-    060126 844  0.7-  0.5-    060221 844  0.1-  0.0
060122 673  0.1+  0.3-    060126 844  0.1+  0.4-    060221 844  0.0   0.4-
060122 673  0.4+  1.1+    060126 844  0.5-  0.2-    060222 423  0.0   0.2-
060122 673  0.0   1.2-    060127 423  0.1-  0.0     060222 423  0.2+  0.1+
060122 673  0.3+  0.3+    060127 423  0.3-  0.1-    060222 423  0.2-  0.4+
060122 H06  0.5+  0.1-    060127 423  0.1-  0.2-    060222 423  0.3-  0.3+
060122 H06  0.4+  0.1-    060127 423  0.0   0.0     060222 423  0.3+  0.3+
060122 423  0.3+  0.2-    060128 423  0.1+  0.2-    060224 423  0.3-  0.1+
060122 423  0.3-  0.1-    060128 423  0.3-  0.2-    060224 423  0.0   0.2+
060122 423  0.3-  0.3+    060128 423  0.2-  0.3-    060524 G96  0.4-  0.0
060122 E12  0.2+  0.4+    060129 I37  0.6+  2.8+    060524 G96  0.4-  0.0
060122 E12  0.2-  0.1+    060129 I37 (0.7+  4.2+)   060524 G96  0.2+  0.1-
060122 423  0.2+  0.0     060129 I37  1.0+  2.8+    060524 G96  0.2+  0.2+
060122 E12  0.0   0.2-    060206 423  1.1-  0.3+    060618 448  0.4+  0.3+
060123 I77  0.2-  0.1-    060206 423  0.2-  0.2+    060618 448  0.0   0.1+
060123 I77  0.3-  0.2-    060207 E12  0.4-  0.0     060618 448  0.6-  0.4-

Ephemeris:
2006 BN6                 a,e,i = 2.55, 0.71, 18                  q = 0.7442
Date    TT    R. A. (2000) Decl.     Delta      r     Elong.  Phase     V
2006 06 14    00 02.88   +21 24.4    1.073    1.261    74.2    50.8    19.8
2006 06 24    00 10.23   +24 32.3    1.101    1.369    80.4    47.1    20.0
2006 07 04    00 14.05   +27 13.2    1.116    1.475    87.4    43.5    20.1
2006 07 14    00 13.90   +29 26.5    1.123    1.580    95.1    39.8    20.1
2006 07 24    00 09.40   +31 08.2    1.124    1.683   103.6    35.9    20.2
2006 08 03    00 00.42   +32 11.2    1.125    1.783   112.8    31.7    20.2
2006 08 13    23 47.46   +32 27.5    1.132    1.880   122.4    27.1    20.2
2006 08 23    23 31.71   +31 50.8    1.149    1.975   132.1    22.3    20.2
2006 09 02    23 15.00   +30 20.6    1.184    2.067   140.8    18.0    20.2
2006 09 12    22 59.38   +28 06.1    1.240    2.156   147.2    14.7    20.3
2006 09 22    22 46.44   +25 24.0    1.321    2.243   149.2    13.2    20.4
2006 10 02    22 37.09   +22 33.1    1.427    2.327   146.3    13.8    20.7
2006 10 12    22 31.50   +19 50.3    1.557    2.409   140.0    15.4    21.0
2006 10 22    22 29.39   +17 26.0    1.708    2.488   132.2    17.2    21.4
2006 11 01    22 30.31   +15 25.6    1.877    2.565   123.7    18.8    21.7
2006 11 11    22 33.73   +13 50.6    2.061    2.640   115.2    19.8    22.0

Gareth V. Williams           (C) Copyright 2006 MPC           M.P.E.C. 2006-M12

Read MPEC 2006-M11 Read MPEC 2006-M13


Our Web policy. Index to the CBAT/MPC/ICQ pages.


Valid HTML 4.01!